Location: ?????
(55.6500°N, 37.2500°E)
Time: 09:42:28
(UTC+00:00)

DELTA 2 DEB (DPAF) - Pass Details

Date: 19 May 2025
Orbit: 539 x 548 km, 98.4° (Epoch: 13 June)

Event Time Altitude Azimuth Distance (km) Brightness Sun altitude
Rises 19:24:16 0° 19° (NNE) 2,736 8.0 -10.0°
Reaches altitude 10° 19:26:29 10° 25° (NNE) 1,835 7.0 -10.2°
Maximum altitude 19:30:20 49° 101° (E) 717 4.1 -10.4°
Enters shadow 19:33:36 13° 175° (S) 1,600 5.6 -10.6°
